Simultaneous Nadir Overpasses (SNOs) Predictions

Prediction of SNOs between GOES-15 and NPP Satellite Orbit:

Table of predicted SNOs for the next 14.0 days since TLE Epoch: 12/4/2021
Index Date Time (GOES-15) GOES-15 Lat,Lon NPP Lat,Lon Distance(km) Time Diff (sec)
1 12/04/2021 09:44:26 0.04,-128.10 -0.76,-124.47 413.91 80
2 12/05/2021 22:03:41 -0.01,-128.07 -0.39,-129.77 194.46 80
3 12/06/2021 21:47:34 -0.03,-128.04 0.58,-125.23 319.38 80
4 12/08/2021 10:06:41 0.00,-127.98 0.59,-130.50 287.30 80
5 12/09/2021 09:50:35 0.01,-127.95 -0.44,-125.97 226.34 80
6 12/10/2021 22:09:50 0.01,-127.91 -0.76,-131.26 382.55 80
7 12/11/2021 21:53:44 0.00,-127.88 0.27,-126.73 131.27 80
8 12/13/2021 10:12:50 -0.02,-127.83 0.89,-132.00 475.03 80
9 12/14/2021 09:56:44 -0.01,-127.80 -0.08,-127.46 38.52 80
10 12/16/2021 21:57:13 0.02,-127.72 -0.09,-128.22 57.60 80
11 12/17/2021 21:41:06 0.00,-127.68 0.89,-123.68 455.57 80
